Вернуться в каталог

FRAMSAT-1

FS-1

АктивенЛюбительское радиоSSO
NORAD 98914·PAYLOAD·🇳🇴 Norway
Loading…

Ближайшие Пролёты (ближайшие 24 часа)

TLE

СвежийSource: SatNOGS

Эпоха: Sep 13, 2026, 03:44 UTC

1 98914U 26203B   26256.15623187  .00002851  00000-0  21196-3 0  9996
2 98914  97.4200 331.1609 0057782 252.6910 106.7989 15.02445506  1106

Отслеживайте FRAMSAT-1 в реальном времени с AllMySat

Download on the App Store